Vorticity
nan nan nan nan nan nan nan nan nan nan nan nan nan nan nan nan nan nan nan nan nan nan nan nan nan nan nan nan nan nan nan nan nan nan nan nan nan nan nan nan nan nan nan
nan 10 7 8 8 8 7 8 9 7 4 5 8 9 8 9 8 7 9 11 7 6 5 8 5 5 7 8 6 4 5 9 7 2 8 11 10 11 11 7 8 7 nan
nan 8 7 7 8 8 8 8 9 7 6 6 6 8 6 9 8 7 10 10 5 6 6 5 6 6 6 8 7 6 5 6 7 5 5 10 8 9 13 12 10 7 nan
nan 8 8 6 7 7 9 9 8 7 6 6 8 9 6 5 7 7 7 6 8 9 7 6 6 6 7 7 7 8 6 7 6 8 9 5 9 8 7 10 11 11 nan
nan 8 8 7 6 7 7 9 9 8 7 5 4 5 6 7 10 11 9 7 8 9 8 8 7 6 7 9 8 8 7 5 6 6 8 8 7 9 8 7 9 8 nan
nan 8 10 11 9 7 7 9 9 8 8 7 6 5 6 5 7 9 7 8 10 12 10 8 7 8 7 8 8 8 7 6 6 5 6 7 8 10 9 9 6 8 nan
nan 10 8 8 10 9 6 7 10 8 7 6 8 8 7 8 7 7 8 8 6 9 11 9 6 7 7 7 7 9 9 8 9 5 4 6 6 8 10 10 9 13 nan
nan 10 8 7 9 9 9 8 8 7 8 8 6 8 6 4 9 9 8 9 8 9 9 8 9 8 7 7 7 8 9 9 9 10 7 8 9 7 7 7 9 8 nan
nan 11 9 8 9 10 10 9 8 7 8 7 7 8 8 7 6 7 5 7 8 9 10 9 8 8 9 10 8 8 9 9 10 12 10 7 8 10 11 10 9 8 nan
nan 12 10 9 7 9 11 10 10 9 8 8 7 9 9 7 6 7 7 6 8 8 7 9 9 9 8 10 9 8 11 10 9 12 13 8 9 11 11 11 10 10 nan
nan 12 11 11 10 10 10 9 11 9 9 10 9 8 9 8 6 6 7 8 7 8 7 7 8 8 10 12 10 9 12 9 7 10 10 8 10 11 11 10 10 11 nan
nan 13 12 11 10 9 9 8 8 9 9 10 11 10 9 9 7 7 7 6 7 9 10 10 10 10 10 9 8 7 10 11 10 8 9 10 12 10 10 12 10 9 nan
nan 14 12 11 10 9 9 10 8 9 9 8 8 9 7 7 9 8 11 10 10 9 9 10 9 9 9 8 9 11 10 10 9 12 12 13 8 8 9 10 10 7 nan
nan 10 11 11 11 11 10 9 9 10 10 9 7 6 9 8 5 7 11 13 11 10 9 8 9 10 12 12 11 11 11 11 13 14 14 13 12 12 10 8 10 10 nan
nan 11 11 11 12 10 10 10 11 11 10 9 8 8 6 7 8 10 9 12 11 10 10 9 11 13 13 12 12 12 13 13 12 13 15 14 18 15 15 15 13 12 nan
nan 13 12 11 12 11 11 10 12 12 11 9 9 9 9 8 9 9 12 12 11 13 14 15 15 13 14 17 14 12 11 12 10 9 9 10 10 11 13 15 16 15 nan
nan 11 13 10 13 14 13 13 12 11 11 9 10 11 12 12 13 12 13 14 12 13 15 15 14 13 15 19 15 14 14 13 12 10 7 8 7 7 5 6 6 8 nan
nan 10 10 12 15 17 16 15 15 13 12 12 13 14 13 12 13 14 10 10 13 12 12 12 12 12 14 17 14 12 12 12 12 11 11 11 8 9 10 6 5 6 nan
nan 8 9 17 19 16 14 12 12 14 14 13 13 14 13 13 11 10 10 10 12 12 12 13 13 12 12 13 12 8 7 9 8 10 12 11 12 11 9 9 9 8 nan
nan 17 14 16 14 13 11 10 10 10 13 14 12 11 12 11 11 12 11 11 12 11 11 12 12 12 11 9 11 10 8 7 7 8 9 10 11 10 9 10 10 9 nan
nan 20 22 16 15 13 11 10 9 10 11 11 12 12 13 12 11 11 10 12 10 10 10 9 9 9 11 12 13 12 14 10 9 9 7 9 11 11 10 9 12 11 nan
nan 17 17 15 15 14 12 9 9 11 11 11 10 11 12 11 11 10 10 11 10 8 8 7 7 7 8 9 12 13 17 15 11 10 12 14 12 10 6 11 11 8 nan
nan 17 12 10 12 15 13 11 11 11 9 10 10 9 10 11 12 10 9 9 9 9 8 7 8 8 8 6 5 6 7 11 12 11 12 12 11 7 6 8 6 6 nan
nan 12 10 10 11 14 15 13 11 10 10 10 8 9 8 9 11 11 11 11 10 10 11 10 10 9 9 8 5 5 6 7 10 10 8 8 7 6 8 7 5 7 nan
nan 14 11 10 12 11 12 13 13 13 10 9 9 9 9 9 8 11 15 16 17 21 17 14 12 11 12 12 13 13 13 12 11 9 9 8 8 7 8 8 8 9 nan
nan nan nan nan nan nan nan nan nan nan nan nan nan nan nan nan nan nan nan nan nan nan nan nan nan nan nan nan nan nan nan nan nan nan nan nan nan nan nan nan nan nan nan
CAPE
59 1 0 1 3 15 16 7 5 7 17 8 19 9 19 41 53 61 29 36 16 0 0 0 0 0 0 0 0 0 0 0 0 0 0 0 0 0 0 0 0 0 0
34 3 1 5 2 11 20 12 6 7 8 7 5 6 7 39 26 42 32 37 29 2 0 0 0 0 0 0 0 0 0 0 0 0 0 0 0 0 0 0 0 0 0
149 16 3 5 1 13 17 11 5 7 5 10 1 0 0 0 22 26 23 60 16 0 0 1 1 2 0 1 0 0 0 0 0 0 0 0 0 0 0 0 0 0 0
265 36 2 6 3 8 19 13 6 5 5 1 5 4 4 6 6 7 23 34 29 0 0 13 9 18 4 0 1 0 0 0 0 0 0 0 0 0 0 0 0 0 0
284 165 1 1 0 1 11 7 9 8 5 1 0 0 9 10 1 4 40 68 47 31 8 19 21 27 5 7 9 0 0 0 0 0 0 0 0 0 0 0 0 0 0
142 198 9 3 0 0 3 7 3 10 9 5 11 0 2 11 1 3 62 78 64 42 53 26 7 13 14 12 9 11 1 0 0 0 0 0 0 0 0 0 0 0 0
39 118 7 2 1 2 0 2 1 8 7 1 1 1 0 4 2 18 34 36 35 7 21 23 61 55 36 40 53 36 3 0 1 1 0 0 0 0 0 0 0 0 0
3 90 58 0 1 1 0 0 3 6 7 6 0 0 0 0 0 0 10 3 20 0 0 8 42 43 48 51 57 51 36 12 2 0 3 0 0 0 0 0 0 1 0
0 30 40 4 0 0 2 0 3 5 5 5 8 2 0 0 0 0 0 0 0 0 0 0 0 16 18 33 54 94 49 8 15 6 5 1 1 2 0 0 0 0 0
0 5 30 4 0 0 0 2 1 0 0 2 4 2 0 0 0 0 0 0 0 0 0 0 0 1 25 50 50 38 37 18 5 4 2 3 0 0 0 0 0 0 0
0 4 28 21 0 0 0 0 0 0 0 0 0 0 0 0 0 0 0 0 0 0 0 0 1 14 27 31 23 3 1 1 1 1 0 0 1 1 0 1 0 0 0
0 16 34 32 2 0 0 0 0 0 0 0 0 0 0 0 0 0 0 1 1 0 0 0 2 13 5 0 0 1 0 0 0 0 0 0 0 0 0 0 0 0 0
0 15 42 37 15 0 0 0 0 0 0 0 0 0 0 0 0 0 0 1 1 1 0 0 0 13 2 3 0 0 0 0 0 0 0 0 0 0 0 0 1 0 0
0 0 60 94 30 0 0 0 0 0 0 0 0 0 0 0 0 0 0 0 0 0 0 0 0 1 0 1 0 1 0 0 0 0 0 0 0 0 0 0 0 0 1
0 0 3 42 69 15 0 0 0 0 0 0 0 0 0 0 0 0 0 0 0 0 0 0 0 3 0 0 0 0 0 0 1 0 0 0 0 0 0 0 0 0 0
0 0 0 0 6 12 18 0 0 0 0 0 0 0 0 0 0 0 0 2 0 0 1 3 0 0 0 1 1 0 1 0 1 0 1 0 0 0 0 0 0 0 0
0 0 0 0 0 1 2 10 2 0 0 0 0 0 0 0 0 0 0 1 0 0 0 1 1 0 0 1 1 0 0 0 0 0 0 0 0 0 0 0 0 0 0
0 0 0 0 0 0 0 0 0 0 3 1 0 0 1 1 0 0 0 0 0 0 0 0 0 0 0 1 0 0 0 0 0 0 0 0 0 0 0 0 0 0 0
0 0 0 0 0 0 0 0 0 0 0 1 0 0 0 0 0 0 0 0 1 0 1 1 1 1 1 0 0 0 0 0 0 0 0 0 0 0 0 0 0 0 0
0 0 0 0 0 0 0 0 3 1 1 0 0 0 0 0 0 1 2 1 1 1 0 1 1 0 1 0 0 0 0 0 0 0 0 0 0 0 0 0 0 0 0
0 0 0 0 0 1 0 2 1 1 1 0 0 0 0 0 1 1 1 0 0 0 0 0 0 0 0 0 0 0 0 0 0 0 0 0 0 0 0 0 0 0 0
0 1 1 2 1 0 1 1 0 1 1 1 0 1 1 0 0 1 0 0 0 0 0 0 1 1 0 0 0 0 0 0 0 0 0 0 0 0 0 0 0 0 0
2 1 1 1 0 0 0 0 1 0 0 0 0 0 0 0 0 0 0 0 0 0 1 1 1 2 1 0 0 0 0 0 0 0 0 0 1 0 0 0 0 0 0
3 1 1 1 0 0 0 0 0 0 0 0 0 0 0 0 0 0 0 0 0 0 0 0 0 0 0 0 0 1 4 0 0 0 0 0 0 0 0 0 0 0 0
2 1 0 0 1 0 1 1 0 0 0 0 0 0 0 0 0 0 0 0 0 0 0 1 1 2 4 4 3 1 1 1 0 0 1 0 0 0 0 0 0 0 0
0 0 0 0 0 0 0 0 0 0 0 0 0 0 0 1 1 0 2 5 3 3 2 2 1 6 4 3 0 0 0 0 0 0 0 1 0 0 1 4 5 4 3